Home   Weather   Bridgetown   Past weeks
Flag for Barbados

Past Weather in Bridgetown, Barbados — Yesterday and Last 2 Weeks

Now
81 °F

Passing clouds.


Feels Like: 85 °F
Forecast: 85 / 81 °F
Wind: 17 mph from East

Location: Grantley Adams

Current Time: May 22, 2019 at 11:35:13 pm

Latest Report: May 22, 2019 at 11:00 pm


Visibility: N/A

Pressure: 29.95 "Hg

Humidity: 79%

Dew Point: 73 °F

Location of BridgetownLocation

Past Weather in Bridgetown — Graph

°F

Bridgetown Temperature Yesterday

Maximum temperature yesterday: 88 °F (at 9:00 am)
Minimum temperature yesterday: 81 °F (at 12:00 am)
Average temperature yesterday: 83 °F

High & Low Weather Summary for the Past Weeks

 TemperatureHumidityPressure
High88 °F (May 8, 2:00 pm)89% (May 8, 3:00 am)30.04 "Hg (May 8, 3:00 am)
Low77 °F (May 8, 3:00 am)55% (May 21, 9:00 am)29.86 "Hg (May 9, 4:00 pm)
Average82 °F73%29.95 "Hg
* Reported May 7 10:00 pm — May 22 10:00 pm, Bridgetown. Weather by CustomWeather, © 2019

Note: Actual official high and low records may vary slightly from our data, if they occured in-between our weather recording intervals... More about our weather records

Advertising

Bridgetown Weather History for the Previous 24 Hours

Scroll right to see more
 ConditionsComfort  
Time TempWeatherWind HumidityBarometerVisibility
10:00 pm
Wed, May 22
81 °FPassing clouds.17 mph74%29.95 "HgN/A
9:00 pm81 °FPassing clouds.17 mph74%29.95 "HgN/A
8:00 pm81 °FPassing clouds.17 mph74%29.92 "HgN/A
7:00 pm81 °FPassing clouds.20 mph74%29.92 "HgN/A
6:00 pm81 °FPassing clouds.16 mph74%29.89 "HgN/A
5:00 pm82 °FPassing clouds.16 mph70%29.89 "HgN/A
4:00 pm84 °FPassing clouds.15 mph66%29.92 "HgN/A
3:00 pm84 °FScattered clouds.16 mph66%29.92 "HgN/A
2:00 pm86 °FScattered clouds.15 mph62%29.92 "HgN/A
1:00 pm86 °FPassing clouds.18 mph62%29.95 "HgN/A
12:00 pm86 °FPassing clouds.18 mph62%29.95 "HgN/A
11:00 am84 °FScattered clouds.17 mph66%29.98 "HgN/A
10:00 am84 °FPartly sunny.18 mph66%29.98 "HgN/A
9:00 am84 °FPartly sunny.21 mph66%29.95 "HgN/A
8:00 am84 °FScattered clouds.20 mph66%29.95 "HgN/A
7:00 am82 °FScattered clouds.17 mph70%29.95 "HgN/A
6:00 am81 °FPassing clouds.17 mph74%29.92 "HgN/A
5:00 am81 °FPassing clouds.18 mph74%29.92 "HgN/A
4:00 am81 °FPassing clouds.16 mph74%29.92 "HgN/A
3:00 am81 °FScattered showers. Passing clouds.18 mph74%29.92 "HgN/A
2:00 am81 °FSprinkles. Passing clouds.20 mph74%29.92 "HgN/A
1:00 am81 °FPassing clouds.18 mph74%29.95 "HgN/A
12:00 am81 °FPassing clouds.20 mph74%29.95 "HgN/A
11:00 pm
Tue, May 21
81 °FPassing clouds.18 mph74%29.98 "HgN/A
Weather by CustomWeather, © 2019

See weather overview